sat.trackr.live / text

‹ back to catalog

2024-092F

NORAD 59778 · 2024-092F

PAYLOAD ACTIVE UNKNOWN

§ Identity

Operator
Country
CIS
Launch date
2024-05-16
Launch site
PLMSC
Launch vehicle
Mass (kg)
RCS (m²)

External: N2YO · Heavens-Above · Gunter

§ Orbital elements

Epoch: 2026-09-22T15:42:48.805920Z

Period
93.44 min
Inclination
97.6686°
Eccentricity
0.0007033
Mean motion
15.41080588 rev/d
Perigee alt
438.1 km
Apogee alt
447.7 km
Semi-major
6,821.1 km
B*
4.1689e-4
RAAN
43.4716°
Arg perigee
155.2585°
Mean anomaly
204.8999°
Rev number
13,076

§ Raw data

2024-092F1 59778U 24092F   26265.65473155  .00017177  00000+0  41689-3 0  99932 59778  97.6686  43.4716 0007033 155.2585 204.8999 15.41080588130767

JSON: /api/v1/satellites/59778 · /tle

For live sub-satellite position, see the globe view (requires WebGL).

§ Visibility from observer

Set your observer location to see the next 7 days of passes ≥ 10°. The values pass through the URL so the page stays shareable.

No JS? Fill the form by hand. The geolocation button needs JavaScript.

§ Radio — SatNOGS DB

ModeDescriptionDownlinkUplink
FSK Telemetry 401.215 MHz

1 transmitter · refreshed weekly from db.satnogs.org